Simultaneous Nadir Overpasses (SNOs) Predictions

Prediction of SNOs between METOP-C and LANDSAT-8 Satellite Orbit:

Table of predicted SNOs for the next 14.0 days since TLE Epoch: 2/1/2020
Index Date (METOP-C) Time (METOP-C) Lat,Lon (METOP-C) SZA (METOP-C ) Date (LANDSAT-8) Time (LANDSAT-8) Lat,Lon (LANDSAT-8) SZA (LANDSAT-8 ) Distance(km) Time Diff (sec)
1 02/01/2020 14:12:22 -81.06,-174.59 80.28 02/01/2020 14:13:16 -81.06,-174.58 80.26 0.31 54
2 02/01/2020 15:02:59 81.09, -6.45 99.81 02/01/2020 15:02:41 81.09, -6.50 99.80 0.80 18
3 02/04/2020 10:36:49 81.06, 59.48 98.92 02/04/2020 10:36:56 81.06, 59.60 98.93 2.03 7
4 02/04/2020 11:27:29 -81.09,-132.56 81.03 02/04/2020 11:26:22 -81.09,-132.44 81.04 2.13 67
5 02/07/2020 06:10:37 81.07, 126.17 98.07 02/07/2020 06:11:10 81.06, 126.03 98.07 2.52 33
6 02/07/2020 07:01:17 -81.09, -65.85 81.86 02/07/2020 07:00:36 -81.09, -65.99 81.90 2.55 41
7 02/10/2020 01:44:25 81.06,-167.51 97.16 02/10/2020 01:45:23 81.06,-167.58 97.17 1.13 58
8 02/10/2020 02:35:05 -81.08, 0.49 82.78 02/10/2020 02:34:49 -81.09, 0.43 82.79 1.15 16
9 02/12/2020 22:08:55 -81.06, 66.46 83.77 02/12/2020 22:09:04 -81.06, 66.45 83.77 0.59 9




NCC Satellite Simultaneous Nadir Overpasses (SNOs) Prediction Service
